Location: Bratislava
(48.1500°N, 17.1170°E)
Time: 07:33:38
(UTC+01:00)

Envisat - Visible Passes

Search period start: 22 January 2019 00:00
Search period end: 01 February 2019 00:00
Orbit: 764 x 766 km, 98.2° (Epoch: 20 January)

Date Brightness Start Highest point End Pass type
(mag) Time Alt. Az. Time Alt. Az. Time Alt. Az.
22 Jan 5.6 06:32:30 10° NE 06:36:35 24° E 06:40:38 10° SE visible
22 Jan 3.3 17:50:17 10° SE 17:55:05 44° ENE 17:59:55 10° N visible
22 Jan 5.0 19:30:00 10° SSW 19:34:17 27° W 19:38:37 10° NW visible
23 Jan 6.3 05:57:45 10° ENE 05:59:21 11° E 06:00:57 10° ESE visible
23 Jan 4.0 17:14:40 10° ESE 17:18:38 24° ENE 17:22:37 10° N visible
23 Jan 3.6 18:52:20 10° S 18:57:18 56° W 19:02:19 10° NNW visible
24 Jan 2.9 18:15:29 10° SSE 18:20:32 73° ENE 18:25:37 10° N visible
24 Jan 5.7 19:56:54 10° SW 20:00:07 17° W 20:03:20 10° NW visible
25 Jan 5.9 06:21:37 10° NE 06:25:16 19° E 06:28:52 10° SE visible
25 Jan 3.5 17:39:19 10° SE 17:43:56 37° ENE 17:48:35 10° N visible
25 Jan 4.6 19:18:25 10° SSW 19:23:00 33° W 19:27:36 10° NNW visible
26 Jan 3.3 18:41:01 10° S 18:46:04 69° WSW 18:51:10 10° NNW visible
27 Jan 5.1 06:46:31 10° NNE 06:51:03 32° E 06:55:33 10° SSE visible
27 Jan 3.0 18:04:23 10° SSE 18:09:21 59° ENE 18:14:22 10° N visible
27 Jan 5.4 19:45:02 10° SW 19:48:46 21° W 19:52:33 10° NW visible
28 Jan 6.0 06:10:53 10° NE 06:13:54 16° E 06:16:56 10° SE visible
28 Jan 3.7 17:28:26 10° SE 17:32:50 30° ENE 17:37:14 10° N visible
28 Jan 4.2 19:06:56 10° SSW 19:11:43 41° W 19:16:32 10° NNW visible
29 Jan 3.0 18:29:46 10° SSE 18:34:51 85° WSW 18:39:59 10° NNW visible
29 Jan 6.1 20:12:40 10° WSW 20:14:40 12° W 20:16:39 10° WNW visible
30 Jan 5.5 06:35:31 10° NE 06:39:45 26° E 06:43:58 10° SSE visible
30 Jan 3.2 17:53:20 10° SE 17:58:11 48° ENE 18:03:05 10° N visible
30 Jan 5.1 19:33:17 10° SSW 19:37:27 25° W 19:41:39 10° NW visible
31 Jan 6.2 06:00:25 10° ENE 06:02:33 12° E 06:04:41 10° ESE visible
31 Jan 4.0 17:17:37 10° ESE 17:21:43 25° ENE 17:25:50 10° N visible
31 Jan 3.8 18:55:31 10° S 19:00:27 51° W 19:05:26 10° NNW visible
